カタログに戻る

JIAOTONG VDES A

運用中科学PO
NORAD 66913·PAYLOAD·🇨🇳 China
この衛星名は、まだ公式ソースで確認されていません。

打ち上げ Dec 5, 2025 から Jiuquan Satellite Launch Center

Loading…

次のパス (今後24時間)

TLE

最新Source: Space-Track

元期: Sep 14, 2026, 13:05 UTC

1 66913U 25284A   26257.54547426  .00000114  00000-0  74313-4 0  9993
2 66913  80.4068 196.1011 0005068 260.2161  99.8428 13.97366818 39968

AllMySatでJIAOTONG VDES Aをリアルタイム追跡

Download on the App Store